EHI
0 0 0 0 0 0 0 0 0 0 0 0 1 2 4 9 13 15 16 17 17 15 11 10 11 10 9 6 5 5 4 3 4 3 1 0 0 0 0 0 0 0 0 0
0 0 0 0 0 0 0 0 0 0 0 0 1 2 3 6 10 14 16 17 18 17 15 13 11 10 8 6 4 4 3 2 2 2 1 0 0 0 0 0 0 0 0 0
0 0 0 0 0 0 0 0 0 0 0 0 1 2 2 3 6 11 14 15 16 18 18 16 13 10 7 5 4 2 1 1 2 2 1 0 0 0 0 0 0 0 0 0
0 0 0 0 0 0 0 0 0 0 0 0 1 1 1 1 2 6 9 11 14 16 18 18 15 11 7 4 2 1 0 1 2 2 1 0 0 0 0 0 0 0 0 0
0 0 0 0 0 0 0 0 0 0 0 0 0 0 0 0 1 2 5 9 12 14 16 17 16 12 8 4 1 0 1 2 3 2 0 0 0 0 0 0 0 0 0 0
0 0 0 0 0 0 0 0 0 0 0 0 0 0 0 0 0 1 3 8 11 12 14 15 14 11 7 3 1 0 2 3 3 2 1 0 0 0 0 0 0 0 0 0
0 0 0 0 0 0 0 0 0 0 0 0 0 0 0 0 0 1 2 5 9 11 12 12 12 11 7 3 0 0 1 2 3 3 2 1 0 0 0 0 0 0 0 0
0 0 0 0 0 0 0 0 0 0 0 0 0 0 0 0 0 0 0 2 5 7 8 9 10 9 6 2 0 0 1 1 2 2 2 1 0 0 0 0 0 0 0 0
0 0 0 0 0 0 0 0 0 0 0 0 0 0 0 0 0 1 1 1 3 5 6 7 7 6 4 2 1 1 1 1 1 1 1 0 0 0 0 0 0 0 0 0
0 0 0 0 0 0 0 0 0 0 0 0 0 0 0 0 0 1 1 1 3 4 5 5 4 3 1 1 1 1 1 1 0 0 0 0 0 0 0 0 0 0 0 0
0 0 0 0 0 0 0 0 0 0 0 0 0 0 0 0 0 1 1 1 2 3 3 3 2 0 0 1 1 1 2 2 1 0 0 0 0 0 0 0 0 0 0 0
0 0 0 0 0 0 0 0 0 0 0 0 0 0 0 0 0 0 0 0 1 2 1 1 0 0 1 2 2 3 3 3 2 1 0 0 0 0 0 0 0 0 0 0
0 0 0 0 0 0 0 0 0 0 0 0 0 0 0 0 0 0 0 0 0 0 0 0 0 0 1 2 3 3 3 3 3 2 1 0 0 0 0 0 0 0 0 0
0 0 0 0 0 0 0 0 0 0 0 0 0 0 0 0 0 0 0 0 0 0 0 0 0 0 0 1 2 3 3 3 3 2 1 0 0 0 0 0 0 0 0 0
0 0 0 0 0 0 0 0 0 0 0 0 0 0 0 0 0 0 0 0 0 0 0 0 0 0 0 0 1 3 3 2 3 2 1 0 0 0 0 0 0 0 0 0
0 0 0 0 0 0 0 0 0 0 0 0 0 0 0 0 0 0 0 0 0 0 0 0 0 0 0 0 1 2 3 3 3 2 0 0 0 0 0 0 0 0 0 0
0 0 0 0 0 0 0 0 0 0 0 0 0 0 0 0 0 0 0 0 0 0 0 0 0 0 0 0 0 1 2 2 2 1 0 0 0 0 0 0 0 0 0 0
0 0 0 0 0 0 0 0 0 0 0 0 0 0 0 0 0 0 0 0 0 0 0 0 0 0 0 0 0 0 1 1 1 1 0 0 0 0 0 0 0 0 0 0
0 0 0 0 0 0 0 0 0 0 0 0 0 0 0 0 0 0 0 0 0 0 0 0 0 0 0 0 0 0 1 0 0 0 0 0 0 0 0 0 0 0 0 0
0 0 0 0 0 0 0 0 0 0 0 0 0 0 0 0 0 0 0 0 0 0 0 0 0 0 0 0 0 0 0 0 0 0 0 0 0 0 0 0 0 0 0 0
0 0 0 0 0 0 0 0 0 0 0 0 0 0 0 0 0 0 0 0 0 0 0 0 0 0 0 0 0 0 0 0 0 0 0 0 0 0 0 0 0 0 0 0
0 0 0 0 0 0 0 0 0 0 0 0 0 0 0 0 0 0 0 0 0 0 0 0 0 0 0 0 0 0 0 0 0 0 0 0 0 0 0 0 0 0 0 0
0 0 0 0 0 0 0 0 0 0 0 0 0 0 0 0 0 0 0 0 0 0 0 0 0 0 0 0 0 0 0 0 0 0 0 0 0 0 0 0 0 0 0 0
0 0 0 0 0 0 0 0 0 0 0 0 0 0 0 0 0 0 0 0 0 0 0 0 0 0 0 0 0 0 0 0 0 0 0 0 0 0 0 0 0 0 0 0
0 0 0 0 0 0 0 0 0 0 0 0 0 0 0 0 0 0 0 0 0 0 0 0 0 0 0 0 0 0 0 0 0 0 0 0 0 0 0 0 0 0 0 0
0 0 0 0 0 0 0 0 0 0 0 0 0 0 0 0 0 0 0 0 0 0 0 0 0 0 0 0 0 0 0 0 0 0 0 0 0 0 0 0 0 0 0 0
Wind_Speed
3 5 2 5 5 5 4 3 2 4 2 2 2 3 4 6 6 6 7 7 7 6 5 4 5 5 5 4 4 3 3 3 3 3 2 2 2 1 2 2 3 3 3 3
5 1 5 3 4 4 4 2 1 2 1 3 2 1 2 6 7 8 9 8 8 7 6 5 5 4 4 4 3 3 2 3 3 2 2 2 2 1 1 2 3 3 3 3
3 4 2 4 3 3 2 4 4 2 2 3 3 1 2 3 3 3 5 6 6 8 8 7 6 5 4 4 3 3 2 2 3 3 3 3 3 2 2 2 2 3 3 3
2 3 2 2 3 4 2 4 5 3 2 1 1 2 4 2 3 4 5 6 7 7 7 7 7 6 5 4 4 3 4 4 3 4 4 4 3 1 0 1 1 3 3 3
3 1 1 2 4 5 4 3 4 3 3 1 2 2 5 1 4 6 6 6 7 8 8 8 7 7 5 4 4 4 5 4 3 3 4 4 3 1 1 1 2 2 3 3
4 2 3 3 1 4 5 6 6 5 4 1 2 2 5 4 6 5 5 6 7 7 7 7 6 6 5 5 4 4 5 4 3 3 3 3 3 2 2 1 1 2 2 2
4 3 2 2 2 2 4 6 4 4 3 4 2 2 7 5 4 5 6 6 6 7 8 8 8 7 7 6 4 4 4 3 3 3 2 2 2 2 2 0 1 1 1 2
1 4 2 2 4 5 4 7 7 5 5 4 1 4 6 2 1 2 3 5 6 7 7 7 7 7 7 6 5 4 4 3 2 2 2 1 2 1 1 1 1 1 1 2
5 4 2 1 1 6 5 3 5 7 2 1 4 5 5 1 1 2 4 5 6 6 7 7 7 7 6 6 4 4 4 3 2 2 2 2 1 1 0 0 0 1 1 1
6 2 2 1 3 3 4 7 5 5 5 3 3 4 5 3 4 3 4 5 5 6 6 7 7 7 6 5 4 3 4 3 2 2 2 2 2 1 1 1 1 1 2 2
3 3 3 2 1 2 2 4 4 4 4 5 3 6 5 6 6 6 6 5 6 6 6 6 6 6 6 5 4 3 3 3 2 2 2 3 2 2 2 2 2 2 2 2
2 4 1 3 2 1 3 4 6 4 3 4 3 7 3 3 4 6 6 5 5 6 5 5 6 6 6 6 5 4 4 3 2 2 3 2 2 2 2 2 2 2 2 2
5 5 2 5 5 3 2 2 3 4 4 4 4 6 1 3 4 5 6 6 6 6 6 5 5 5 5 5 4 4 4 3 3 3 3 3 2 2 2 1 2 2 2 2
5 4 6 7 6 3 2 2 3 4 3 4 6 5 3 4 5 5 5 6 6 7 7 6 6 5 5 4 4 4 3 3 3 3 3 2 1 1 1 1 2 2 2 2
5 3 3 4 3 2 2 4 4 5 6 6 6 6 6 7 7 7 6 6 7 7 7 7 7 5 5 4 4 4 3 3 3 3 2 1 1 1 1 1 2 2 2 2
3 3 1 2 1 1 2 3 4 4 3 4 2 5 4 4 5 6 7 8 8 8 8 7 7 7 6 6 5 4 4 3 4 3 2 1 1 1 1 1 2 2 2 3
2 4 2 2 3 1 3 4 4 3 4 5 6 6 4 4 7 9 9 9 9 9 8 9 8 7 7 6 6 6 4 3 4 3 2 2 2 1 0 0 1 1 2 2
5 4 3 1 1 3 7 3 3 3 3 4 4 4 6 6 5 4 6 8 8 8 8 8 8 7 6 5 5 5 4 4 3 3 2 2 2 1 0 1 1 1 1 1
4 6 4 3 1 5 5 2 3 3 3 3 4 4 4 5 4 0 4 6 7 8 7 7 7 7 6 6 6 6 5 4 3 3 2 2 2 2 1 0 1 1 1 2
5 5 5 3 2 5 6 2 2 2 4 3 5 6 6 6 3 4 5 6 6 6 6 6 6 6 6 6 6 6 5 4 3 3 2 2 2 2 2 1 1 1 1 2
2 3 3 3 3 7 5 1 3 2 7 3 6 7 8 6 5 4 6 5 6 6 6 7 7 6 6 6 7 6 5 4 3 3 2 2 2 2 2 1 1 1 1 2
5 4 4 4 3 7 2 4 5 7 2 3 5 6 6 3 3 5 6 7 7 7 6 7 7 6 5 6 7 6 4 3 3 3 2 2 1 1 1 1 1 1 1 2
5 6 6 7 7 5 2 4 3 3 2 3 4 4 6 5 4 5 5 6 6 7 6 6 7 6 5 5 7 6 4 4 3 3 2 1 1 1 1 1 1 1 1 1
2 2 3 2 4 3 3 2 1 2 3 3 4 5 6 5 6 6 6 6 6 6 6 6 7 7 5 5 5 5 4 4 4 3 2 1 1 1 1 1 2 2 2 2
4 3 2 3 4 1 2 2 2 2 3 5 4 4 6 7 7 7 7 7 6 5 5 6 7 6 6 5 4 4 5 5 4 3 2 1 1 1 2 2 2 3 4 4
5 7 6 7 7 5 5 3 3 4 4 5 5 4 4 6 8 7 6 6 6 6 5 6 6 6 5 5 4 4 4 5 4 3 2 1 1 1 1 2 3 4 6 7
Wind_Direction
58 76 170 210 193 169 152 164 228 252 226 151 176 192 189 170 177 183 183 181 175 172 144 131 122 119 112 101 101 104 109 113 119 116 112 98 81 55 38 36 37 33 30 35
41 296 225 186 160 143 143 141 271 304 95 145 143 200 197 181 196 196 192 189 177 163 151 140 132 129 130 124 115 111 121 128 124 113 115 111 108 81 57 25 27 27 28 22
178 241 185 146 148 149 174 175 202 209 44 63 110 343 264 218 195 197 192 178 171 171 167 158 149 141 135 136 150 147 127 122 114 109 101 94 74 56 39 21 9 6 17 20
244 260 169 157 187 158 231 202 176 161 108 322 122 232 268 232 218 214 207 184 178 173 167 162 154 147 146 149 145 134 116 102 101 107 114 117 110 101 53 342 343 352 8 8
266 220 154 195 212 159 187 125 120 124 125 64 12 156 278 187 227 232 215 193 181 176 170 164 155 146 137 132 128 127 112 99 99 107 118 111 102 109 81 37 14 360 354 360
248 243 204 207 187 145 135 85 63 56 71 55 254 177 267 226 222 229 211 190 181 169 160 151 141 132 126 124 115 110 107 101 100 105 112 125 126 115 85 42 6 346 338 345
322 308 251 161 109 72 108 99 45 8 9 252 257 196 248 247 230 221 213 194 174 161 155 153 148 144 140 132 119 112 111 103 102 109 113 127 135 138 139 164 303 324 332 330
260 294 255 188 177 177 171 143 157 187 212 262 290 235 254 268 267 190 179 167 154 152 155 157 154 149 146 137 132 125 117 107 106 109 109 113 129 135 156 197 230 294 290 295
185 254 281 240 154 140 144 162 157 131 141 202 265 273 295 193 107 122 136 146 156 157 154 150 147 146 140 134 134 135 127 113 103 99 96 87 87 107 138 347 27 305 298 312
165 216 293 297 75 37 136 143 104 121 151 227 264 255 247 232 200 169 159 163 163 150 147 142 141 138 134 130 125 122 121 120 114 103 94 87 71 71 69 39 5 350 347 1
136 160 304 16 136 199 106 99 109 119 152 162 229 260 231 210 191 179 175 166 158 152 146 140 140 139 133 128 133 133 122 115 111 105 94 83 65 64 67 58 31 20 16 12
137 122 255 281 289 189 146 157 148 154 208 178 187 260 286 190 167 160 155 151 146 140 136 136 136 137 139 142 145 144 138 134 132 120 102 90 72 64 60 47 26 23 24 12
136 112 62 341 342 8 81 125 129 122 122 160 181 258 8 109 126 145 150 153 149 144 142 138 138 147 152 151 151 148 144 142 136 123 110 96 79 69 51 31 17 18 22 13
115 116 163 202 225 212 202 184 156 136 157 203 219 230 227 178 169 163 159 160 156 157 157 156 155 158 161 158 155 152 146 142 135 121 115 112 110 87 36 11 17 22 22 15
99 135 200 239 243 193 209 214 192 193 195 197 226 217 229 201 185 174 163 160 162 165 166 167 166 161 159 156 154 151 147 142 136 128 128 141 121 89 59 29 23 21 14 8
80 136 140 312 306 185 250 246 210 220 207 208 209 247 236 159 142 153 163 169 176 179 176 173 170 165 165 167 163 156 155 151 139 140 146 143 117 90 62 35 34 23 6 360
110 130 122 265 296 10 281 241 205 206 200 180 207 224 162 158 173 178 180 183 187 185 177 175 176 173 170 169 164 163 163 148 143 147 152 149 136 117 81 48 50 19 353 354
139 121 127 148 26 243 251 245 192 198 225 210 206 188 180 183 178 182 183 183 185 182 178 176 171 168 164 159 156 153 148 147 150 157 164 163 149 153 113 50 13 337 335 337
146 138 126 129 207 278 289 250 168 174 257 209 183 163 142 119 82 353 190 181 183 178 174 171 167 163 159 159 157 148 150 151 157 174 180 180 164 157 147 319 304 309 324 323
69 96 119 137 177 243 254 266 164 109 281 221 163 162 154 134 155 235 188 167 162 156 154 153 149 146 154 160 151 148 157 160 181 192 189 173 163 167 190 229 266 287 291 297
69 68 122 163 215 260 256 232 118 164 248 220 172 168 166 181 194 179 149 153 152 149 149 147 146 154 163 155 149 153 161 184 197 185 167 163 170 182 199 222 261 286 299 311
170 160 179 156 198 254 254 140 178 218 243 172 168 165 164 160 134 137 146 151 148 145 146 148 149 156 155 152 152 158 180 190 167 155 155 165 183 199 174 177 290 300 300 316
191 190 184 187 212 241 246 212 222 186 176 180 167 164 147 139 148 145 150 151 149 148 151 149 149 148 151 159 158 167 184 164 149 148 165 183 195 202 190 196 252 296 292 286
241 149 147 234 261 259 262 259 236 184 178 162 149 147 147 151 155 148 147 146 144 145 150 146 145 150 163 169 170 177 172 154 148 160 186 192 195 244 259 234 231 240 256 267
207 164 166 249 266 288 276 226 177 135 116 111 113 137 151 145 149 153 153 153 151 146 145 148 154 163 172 169 174 176 164 154 155 172 193 202 207 231 263 267 244 239 244 231
201 186 184 221 219 196 227 216 164 142 146 146 132 126 141 148 149 148 151 151 148 149 146 149 157 163 167 165 174 174 164 160 161 176 199 211 223 244 255 278 301 271 248 258